Showing default

ARCSTONE, 64540

Orbit data source: Space-Track

ARCSTONE, 64540 is a payload satellite owned by NASA LaRC (US) in SSO that was launched on Mon, 23 Jun 2025 UTC via an FALCON 9 launch vehicle from the Air Force Western Test Range (AFWTR). Payload-class satellites include a variety of spacecraft equipped with specific instruments for various scientific and technological missions. These include communications satellites like Starlink; space stations such as the ISS; scientific satellites like the Hubble; Earth observation satellites from companies like Planet Labs, Umbra, and HawkEye 360; GPS; miniature CubeSats for education and research; and military/defense satellites.

Loading next visibility...
Identifier
64540, 2025-135N
Orbit
SSO
Country
Flag of USUS
Related business
Manufacturer
Blue Canyon
Mission
Operational Civil Astronomy
Bus & Motor
CUBESAT 6U, Unknown motor
Mass
5 kg wet, 5 kg dry
Launch date (UTC)
2025-06-23 (1 year ago)
Launch vehicle
FALCON 9
Launch site
Air Force Western Test Range (AFWTR)
Object type
Payload
Rocket body
Debris
Shape & HBR
Box + 2 Pan, 0.7 m
Radar Cross Section
0.072 m², Medium (>0.1 m² and < 1m²)

Expand to show TLE details & history
Last TLE update: 11 hours ago

TLE from 11 hours ago
0 ARCSTONE
1 64540U 25135N   26178.29882902  .00020471  00000-0  64268-3 0  9992
2 64540  97.4626 295.8917 0003981 148.4345 211.7137 15.33043796 56583
Epoch: 2026-06-27T07:10Z
TLE epoch observation values (Epoch: 2026-06-27T07:10:18.827Z)
Latitude
0.00004°
Longitude
-87.10173°
Altitude
472.162 km
Speed
7.629 km/s
True Right ascension
19h 43m 34s
True Declination
0° 00' 00"
Sunlit
Object was in full shadow at epoch
Visualization orbit readout
Latitude
Unknown
Longitude
Unknown
Altitude
Unknown
Speed
Unknown
Apparent Right ascension
Unknown
Apparent Declination
Unknown
Sunlit
N/A
Visualization observer readout
Local Sidereal Time
05:17:16
Azimuth
Unknown
Elevation
Unknown
Doppler factor
Unknown
Orbital elements
Apogee altitude
466.412 km
Perigee altitude
460.964 km
Semi-major axis
6,841.825 km
Eccentricity
0.0004
Inclination
97.4626°
RAAN
295.8917°
Arg. of periapsis
148.4345°
True anomaly
211.68973°
Mean anomaly
211.7137°
Eccentric anomaly
211.70171°
Mean motion
3.83518 °/min
Orbital period
93.87 mins
BSTAR
0.00064268
Loading maneuver chart data...
Computing Atmospheric mass density...
Loading historical data...
Loading historical data...
Loading historical data...
Loading historical data...
Loading historical data...
Loading historical data...
Loading historical data...

Documentation

Showing up to 5 results
|